GEC8542 EDDF-KIAH

Flight info

Callsign GEC8542
Flight time N/A
Altitude 32000
Route OBOKA3M OBOKA Z28 DIBIR DCT BUDIP DCT RAVLO Y70 OTBED L60 PENIL M144 BAGSO DCT NEBIN/M084F330 DCT 5330N02000W 5430N03000W 5430N04000W 5230N05000W DCT SAXAN/N0484F340 N550A TOPPS DCT KYLOH Q480 BAF DCT TRIBS Q448 LANNA/N0479F360 Q448 PTW J48 PENSY DCT FANPO Q40 AEX SKNRD5
Aircraft B77L/H-SDE1E2E3FGHIJ2J3J4J5M1RWXY/LB1D1

Departure

Time 2026-04-19 06:40
Airport Frankfurt Main Airport (EDDF)

Arrival

Time N/A
Airport George Bush Intercontinental Airport (KIAH)
Time Latitude Longitude Altitude Speed Heading
2026-04-19 06:27 50.04030 8.54659 353 ft 2 kts 159°
2026-04-19 06:27 50.04028 8.54660 353 ft 2 kts 159°
2026-04-19 06:31 50.04028 8.54661 357 ft 0 kts 159°
2026-04-19 06:31 50.04007 8.54673 360 ft 9 kts 159°
2026-04-19 06:31 50.03964 8.54743 357 ft 10 kts 99°
2026-04-19 06:31 50.03978 8.54844 355 ft 10 kts 70°
2026-04-19 06:32 50.03987 8.54946 360 ft 10 kts 114°
2026-04-19 06:32 50.03925 8.54996 361 ft 11 kts 161°
2026-04-19 06:32 50.03855 8.55046 354 ft 11 kts 139°
2026-04-19 06:32 50.03859 8.55160 362 ft 11 kts 68°
2026-04-19 06:33 50.03887 8.55275 353 ft 11 kts 69°
2026-04-19 06:33 50.03915 8.55392 356 ft 13 kts 70°
2026-04-19 06:33 50.03954 8.55554 361 ft 21 kts 70°
2026-04-19 06:33 50.04009 8.55787 359 ft 23 kts 69°
2026-04-19 06:34 50.04066 8.56025 357 ft 22 kts 69°
2026-04-19 06:34 50.04118 8.56240 364 ft 21 kts 69°
2026-04-19 06:34 50.04170 8.56456 367 ft 21 kts 70°
2026-04-19 06:34 50.04221 8.56671 367 ft 21 kts 70°
2026-04-19 06:35 50.04273 8.56887 365 ft 21 kts 70°
2026-04-19 06:35 50.04324 8.57102 370 ft 21 kts 69°
2026-04-19 06:35 50.04375 8.57317 368 ft 21 kts 70°
2026-04-19 06:35 50.04426 8.57530 366 ft 21 kts 69°
2026-04-19 06:36 50.04478 8.57745 370 ft 21 kts 69°
2026-04-19 06:36 50.04530 8.57961 370 ft 21 kts 69°
2026-04-19 06:36 50.04581 8.58176 375 ft 21 kts 69°
2026-04-19 06:36 50.04633 8.58391 376 ft 21 kts 70°
2026-04-19 06:37 50.04655 8.58514 373 ft 7 kts 93°
2026-04-19 06:37 50.04624 8.58565 373 ft 7 kts 151°
2026-04-19 06:37 50.04608 8.58579 373 ft 0 kts 153°
2026-04-19 06:37 50.04605 8.58582 376 ft 2 kts 153°
2026-04-19 06:38 50.04572 8.58601 379 ft 8 kts 160°
2026-04-19 06:38 50.04529 8.58625 375 ft 6 kts 161°
2026-04-19 06:38 50.04493 8.58607 378 ft 6 kts 232°
2026-04-19 06:38 50.04481 8.58565 375 ft 0 kts 249°
2026-04-19 06:39 50.04440 8.58394 377 ft 43 kts 250°
2026-04-19 06:39 50.04252 8.57602 368 ft 111 kts 249°
2026-04-19 06:40 50.03911 8.56175 358 ft 168 kts 250°
2026-04-19 06:40 50.03460 8.54287 489 ft 194 kts 250°
2026-04-19 06:40 50.02995 8.52345 1092 ft 191 kts 249°
2026-04-19 06:40 50.02443 8.50497 1587 ft 189 kts 232°
2026-04-19 06:41 50.01411 8.49155 1768 ft 201 kts 205°
2026-04-19 06:41 50.00079 8.48561 2158 ft 196 kts 191°
2026-04-19 06:41 49.98757 8.48148 2681 ft 192 kts 194°
2026-04-19 06:41 49.97438 8.47670 3011 ft 198 kts 196°
2026-04-19 06:42 49.96103 8.47112 3313 ft 204 kts 198°
2026-04-19 06:42 49.94717 8.46524 3666 ft 208 kts 198°
2026-04-19 06:42 49.93322 8.45912 4063 ft 209 kts 198°
2026-04-19 06:42 49.91955 8.45205 4461 ft 206 kts 210°
2026-04-19 06:43 49.90865 8.43842 4830 ft 200 kts 237°
2026-04-19 06:43 49.90167 8.42017 5214 ft 196 kts 244°
2026-04-19 06:43 49.89542 8.40141 5569 ft 195 kts 246°
2026-04-19 06:43 49.88995 8.38222 5899 ft 195 kts 251°
2026-04-19 06:44 49.88605 8.36196 6175 ft 198 kts 261°
2026-04-19 06:44 49.88550 8.34028 6334 ft 205 kts 277°
2026-04-19 06:44 49.88747 8.31801 6616 ft 212 kts 279°
2026-04-19 06:44 49.88972 8.29488 6812 ft 227 kts 279°
2026-04-19 06:45 49.89302 8.27025 7046 ft 241 kts 288°
2026-04-19 06:45 49.89999 8.24576 7310 ft 254 kts 299°
2026-04-19 06:45 49.91003 8.22240 7706 ft 264 kts 306°
2026-04-19 06:45 49.92133 8.19962 8265 ft 268 kts 306°
2026-04-19 06:46 49.93278 8.17652 8832 ft 271 kts 305°
2026-04-19 06:46 49.94467 8.15343 9343 ft 277 kts 311°
2026-04-19 06:46 49.95892 8.13289 9869 ft 281 kts 316°
2026-04-19 06:46 49.97382 8.11352 10429 ft 285 kts 317°
2026-04-19 06:47 49.98958 8.09328 10610 ft 304 kts 317°
2026-04-19 06:47 50.00634 8.07157 10794 ft 323 kts 317°
2026-04-19 06:47 50.02405 8.04833 10961 ft 343 kts 316°
2026-04-19 06:47 50.04279 8.02358 11257 ft 358 kts 316°
2026-04-19 06:48 50.06196 7.99805 11769 ft 366 kts 316°
2026-04-19 06:48 50.08146 7.97201 12393 ft 370 kts 316°
2026-04-19 06:48 50.10101 7.94576 13110 ft 372 kts 316°
2026-04-19 06:48 50.12040 7.91969 13772 ft 374 kts 315°
2026-04-19 06:49 50.14018 7.89303 14386 ft 377 kts 315°
2026-04-19 06:49 50.16021 7.86605 15015 ft 380 kts 315°
2026-04-19 06:49 50.18031 7.83893 15599 ft 384 kts 315°
2026-04-19 06:49 50.20056 7.81157 16174 ft 386 kts 315°
2026-04-19 06:50 50.22101 7.78392 16756 ft 390 kts 315°
2026-04-19 06:50 50.24161 7.75601 17326 ft 392 kts 314°
2026-04-19 06:50 50.26296 7.73013 17831 ft 398 kts 325°
2026-04-19 06:50 50.28877 7.71195 18247 ft 411 kts 335°
2026-04-19 06:51 50.31571 7.69629 18774 ft 413 kts 333°
2026-04-19 06:51 50.34229 7.67879 19285 ft 415 kts 332°
2026-04-19 06:51 50.36879 7.66038 19742 ft 419 kts 331°
2026-04-19 06:51 50.39554 7.64174 20206 ft 423 kts 331°
2026-04-19 06:52 50.42259 7.62305 20676 ft 427 kts 332°
2026-04-19 06:52 50.44959 7.60445 21122 ft 430 kts 332°
2026-04-19 06:52 50.47711 7.58549 21574 ft 434 kts 332°
2026-04-19 06:52 50.50485 7.56638 22009 ft 437 kts 332°
2026-04-19 06:53 50.53297 7.54695 22447 ft 440 kts 332°
2026-04-19 06:53 50.56105 7.52729 22872 ft 442 kts 329°
2026-04-19 06:53 50.58794 7.50359 23256 ft 441 kts 323°
2026-04-19 06:53 50.61318 7.47690 23673 ft 443 kts 321°
2026-04-19 06:54 50.63865 7.44890 24066 ft 447 kts 321°
2026-04-19 06:54 50.66440 7.42112 24467 ft 450 kts 321°
2026-04-19 06:54 50.69066 7.39370 24909 ft 453 kts 322°
2026-04-19 06:54 50.71711 7.36654 25342 ft 455 kts 322°
2026-04-19 06:55 50.74326 7.33838 25730 ft 453 kts 316°
2026-04-19 06:55 50.76445 7.30230 26027 ft 444 kts 300°
2026-04-19 06:55 50.78141 7.26149 26398 ft 445 kts 298°
2026-04-19 06:55 50.79823 7.22091 26803 ft 447 kts 298°
2026-04-19 06:56 50.81571 7.18000 27219 ft 449 kts 299°
2026-04-19 06:56 50.83350 7.13937 27611 ft 452 kts 300°
2026-04-19 06:56 50.85164 7.09850 27962 ft 454 kts 300°
2026-04-19 06:56 50.86986 7.05755 28311 ft 456 kts 300°
2026-04-19 06:57 50.88816 7.01632 28663 ft 457 kts 300°
2026-04-19 06:57 50.90645 6.97497 28994 ft 459 kts 300°
2026-04-19 06:57 50.92484 6.93349 29314 ft 461 kts 300°
2026-04-19 06:57 50.94330 6.89186 29634 ft 462 kts 300°
2026-04-19 06:58 50.96164 6.85041 29906 ft 464 kts 300°
2026-04-19 06:58 50.98020 6.80841 30206 ft 465 kts 300°
2026-04-19 06:58 50.99878 6.76630 30582 ft 464 kts 300°
2026-04-19 06:58 51.01726 6.72436 30965 ft 463 kts 300°
2026-04-19 06:59 51.03572 6.68237 31293 ft 462 kts 300°
2026-04-19 06:59 51.05415 6.64036 31618 ft 462 kts 300°
2026-04-19 06:59 51.07227 6.59900 31924 ft 462 kts 300°
2026-04-19 06:59 51.09064 6.55703 32141 ft 464 kts 300°
2026-04-19 07:00 51.12755 6.47195 32200 ft 467 kts 300°
2026-04-19 07:00 51.16418 6.38706 32216 ft 461 kts 300°
2026-04-19 07:01 51.20046 6.30276 32218 ft 460 kts 300°
2026-04-19 07:01 51.23638 6.21902 32216 ft 461 kts 300°
2026-04-19 07:02 51.27261 6.13431 32214 ft 461 kts 300°
2026-04-19 07:02 51.30817 6.04864 32212 ft 463 kts 299°
2026-04-19 07:03 51.34305 5.96242 32217 ft 465 kts 300°
2026-04-19 07:03 51.37923 5.87626 32195 ft 468 kts 304°
2026-04-19 07:04 51.42294 5.79838 32225 ft 471 kts 310°
2026-04-19 07:04 51.46824 5.72306 32209 ft 471 kts 310°
2026-04-19 07:05 51.51359 5.64703 32215 ft 471 kts 310°
2026-04-19 07:05 51.55872 5.57062 32211 ft 471 kts 310°
2026-04-19 07:06 51.60377 5.49390 32215 ft 470 kts 310°
2026-04-19 07:06 51.64870 5.41720 32214 ft 469 kts 310°
2026-04-19 07:07 51.69314 5.34112 32211 ft 468 kts 310°
2026-04-19 07:07 51.73776 5.26447 32222 ft 467 kts 310°
2026-04-19 07:08 51.77463 5.20095 32217 ft 466 kts 310°
2026-04-19 07:08 51.82620 5.11184 32226 ft 465 kts 310°
2026-04-19 07:09 51.86295 5.04815 32230 ft 465 kts 310°
2026-04-19 07:09 51.90708 4.97141 32219 ft 464 kts 310°
2026-04-19 07:10 51.95108 4.89481 32221 ft 463 kts 310°
2026-04-19 07:10 51.99490 4.81816 32230 ft 462 kts 310°
2026-04-19 07:11 52.03837 4.74185 32223 ft 463 kts 310°
2026-04-19 07:11 52.08221 4.66468 32233 ft 463 kts 310°
2026-04-19 07:12 52.12575 4.58788 32235 ft 464 kts 310°
2026-04-19 07:12 52.16957 4.51031 32232 ft 464 kts 310°
2026-04-19 07:13 52.21300 4.43316 32234 ft 464 kts 310°
2026-04-19 07:13 52.25668 4.35534 32231 ft 464 kts 310°
2026-04-19 07:14 52.30026 4.27747 32228 ft 464 kts 310°
2026-04-19 07:14 52.34379 4.19944 32233 ft 463 kts 310°
2026-04-19 07:15 52.38680 4.12205 32253 ft 461 kts 310°
2026-04-19 07:16 52.45151 4.00518 32247 ft 460 kts 310°
2026-04-19 07:16 52.49430 3.92761 32257 ft 460 kts 310°
2026-04-19 07:17 52.53733 3.84938 32256 ft 460 kts 310°
2026-04-19 07:17 52.58017 3.77126 32258 ft 460 kts 310°
2026-04-19 07:18 52.62298 3.69291 32256 ft 460 kts 310°
2026-04-19 07:18 52.66554 3.61477 32261 ft 460 kts 310°
2026-04-19 07:19 52.70818 3.53625 32261 ft 460 kts 310°
2026-04-19 07:19 52.75080 3.45749 32258 ft 460 kts 310°
2026-04-19 07:20 52.79335 3.37861 32256 ft 460 kts 310°
2026-04-19 07:20 52.83558 3.30012 32257 ft 460 kts 310°
2026-04-19 07:21 52.87809 3.22088 32264 ft 459 kts 310°
2026-04-19 07:21 52.91294 3.13308 32268 ft 457 kts 295°
2026-04-19 07:22 52.93325 3.03344 32272 ft 457 kts 283°
2026-04-19 07:22 52.94621 2.93021 32264 ft 457 kts 282°
2026-04-19 07:23 52.95927 2.82680 32267 ft 456 kts 283°
2026-04-19 07:23 52.97241 2.72454 32270 ft 456 kts 283°
2026-04-19 07:24 52.98569 2.62142 32270 ft 456 kts 283°
2026-04-19 07:24 52.99881 2.51903 32276 ft 455 kts 283°
2026-04-19 07:25 53.01188 2.41597 32277 ft 455 kts 283°